Location: Malvern Link
(52.1333°N, 2.3000°W)
Time: 01:25:47
(UTC+00:00)

Cosmos 2263 Rocket - Pass Details

Date: 18 September 2020
Orbit: 822 x 849 km, 71.0° (Epoch: 23 October)

Event Time Altitude Azimuth Distance (km) Brightness Sun altitude
Rises 21:17:02 0° 258° (WSW) 3,360 5.8 -26.1°
Reaches altitude 10° 21:19:59 10° 273° (W) 2,433 5.2 -26.4°
Maximum altitude 21:24:20 23° 325° (NW) 1,711 4.5 -26.9°
Drops below altitude 10° 21:28:45 10° 16° (NNE) 2,454 4.9 -27.4°
Sets 21:31:44 0° 31° (NNE) 3,396 5.5 -27.7°
